Time,TemperatureF,DewpointF,PressureIn,WindDirection,WindDirectionDegrees,WindSpeedMPH,WindSpeedGustMPH,Humidity,HourlyPrecipIn,Conditions,Clouds,dailyrainin,SolarRadiationWatts/m^2,SoftwareType,DateUTC
2013-03-07 00:00:00,35.5,29.0,29.93,WSW,250,0.0,4.0,77,0.00,,,0.00,32767.00,ALWS 1.0-beta,2013-03-07 07:00:00,
2013-03-07 00:05:00,35.2,29.0,29.93,East,91,0.0,3.0,78,0.00,,,0.00,32767.00,ALWS 1.0-beta,2013-03-07 07:05:00,
2013-03-07 00:10:00,35.0,28.9,29.93,East,91,0.0,0.0,78,0.00,,,0.00,32767.00,ALWS 1.0-beta,2013-03-07 07:10:00,
2013-03-07 00:15:00,35.1,29.3,29.93,NW,306,4.0,4.0,79,0.00,,,0.00,32767.00,ALWS 1.0-beta,2013-03-07 07:15:00,
2013-03-07 00:20:00,35.0,29.2,29.93,NW,307,4.0,5.0,79,0.00,,,0.00,32767.00,ALWS 1.0-beta,2013-03-07 07:20:00,
2013-03-07 00:25:00,35.0,29.2,29.93,NE,36,0.0,3.0,79,0.00,,,0.00,32767.00,ALWS 1.0-beta,2013-03-07 07:25:00,
2013-03-07 00:30:00,34.9,29.1,29.93,NE,36,0.0,0.0,79,0.00,,,0.00,32767.00,ALWS 1.0-beta,2013-03-07 07:30:00,
2013-03-07 00:35:00,34.8,29.3,29.93,NE,36,0.0,0.0,80,0.00,,,0.00,32767.00,ALWS 1.0-beta,2013-03-07 07:35:00,
2013-03-07 00:41:00,34.7,29.2,29.93,NE,36,0.0,0.0,80,0.00,,,0.00,32767.00,ALWS 1.0-beta,2013-03-07 07:41:00,
2013-03-07 00:46:00,34.8,29.3,29.94,NE,36,0.0,0.0,80,0.00,,,0.00,32767.00,ALWS 1.0-beta,2013-03-07 07:46:00,
2013-03-07 00:51:00,35.2,29.7,29.93,NE,36,0.0,0.0,80,0.00,,,0.00,32767.00,ALWS 1.0-beta,2013-03-07 07:51:00,
2013-03-07 00:59:00,35.5,30.0,29.94,NE,36,0.0,0.0,80,0.00,,,0.00,32767.00,ALWS 1.0-beta,2013-03-07 07:59:00,
2013-03-07 01:09:00,35.5,29.3,29.94,NNW,342,2.0,2.0,78,0.00,,,0.00,32767.00,ALWS 1.0-beta,2013-03-07 08:09:00,
2013-03-07 01:17:00,35.3,29.5,29.93,NNW,332,3.0,3.0,79,0.00,,,0.00,32767.00,ALWS 1.0-beta,2013-03-07 08:17:00,
2013-03-07 01:22:00,35.2,29.4,29.93,WNW,303,4.0,4.0,79,0.00,,,0.00,32767.00,ALWS 1.0-beta,2013-03-07 08:22:00,
2013-03-07 01:28:00,34.8,29.0,29.94,WNW,302,4.0,4.0,79,0.00,,,0.00,32767.00,ALWS 1.0-beta,2013-03-07 08:28:00,
2013-03-07 01:35:00,34.4,28.9,29.93,WNW,302,0.0,0.0,80,0.00,,,0.00,32767.00,ALWS 1.0-beta,2013-03-07 08:35:00,
2013-03-07 01:40:00,34.4,28.9,29.94,WNW,302,3.0,3.0,80,0.00,,,0.00,32767.00,ALWS 1.0-beta,2013-03-07 08:40:00,
2013-03-07 01:48:00,34.4,28.9,29.94,WNW,302,0.0,0.0,80,0.00,,,0.00,32767.00,ALWS 1.0-beta,2013-03-07 08:48:00,
2013-03-07 01:52:00,34.4,29.2,29.94,WNW,302,5.0,5.0,81,0.00,,,0.00,32767.00,ALWS 1.0-beta,2013-03-07 08:52:00,
2013-03-07 01:58:00,34.3,29.1,29.94,North,360,5.0,5.0,81,0.00,,,0.00,32767.00,ALWS 1.0-beta,2013-03-07 08:58:00,
2013-03-07 02:05:00,34.1,28.9,29.94,WNW,299,6.0,6.0,81,0.00,,,0.00,32767.00,ALWS 1.0-beta,2013-03-07 09:05:00,
2013-03-07 02:10:00,34.0,29.1,29.94,WNW,299,6.0,6.0,82,0.00,,,0.00,32767.00,ALWS 1.0-beta,2013-03-07 09:10:00,
2013-03-07 02:15:00,34.1,29.2,29.94,North,360,3.0,3.0,82,0.00,,,0.00,32767.00,ALWS 1.0-beta,2013-03-07 09:15:00,
2013-03-07 02:20:00,34.1,29.2,29.94,WNW,299,4.0,4.0,82,0.00,,,0.00,32767.00,ALWS 1.0-beta,2013-03-07 09:20:00,
2013-03-07 02:26:00,33.9,29.0,29.94,WNW,298,3.0,3.0,82,0.00,,,0.00,32767.00,ALWS 1.0-beta,2013-03-07 09:26:00,
2013-03-07 02:31:00,33.8,28.9,29.94,WNW,299,0.0,0.0,82,0.00,,,0.00,32767.00,ALWS 1.0-beta,2013-03-07 09:31:00,
2013-03-07 02:36:00,33.4,28.5,29.94,WNW,298,0.0,3.0,82,0.00,,,0.00,32767.00,ALWS 1.0-beta,2013-03-07 09:36:00,
2013-03-07 02:41:00,33.1,28.2,29.94,WNW,299,0.0,0.0,82,0.00,,,0.00,32767.00,ALWS 1.0-beta,2013-03-07 09:41:00,
2013-03-07 02:46:00,32.8,27.9,29.94,WNW,299,0.0,0.0,82,0.00,,,0.00,32767.00,ALWS 1.0-beta,2013-03-07 09:46:00,
2013-03-07 02:51:00,32.6,27.7,29.93,WNW,298,0.0,0.0,82,0.00,,,0.00,32767.00,ALWS 1.0-beta,2013-03-07 09:51:00,
2013-03-07 02:56:00,32.4,27.5,29.93,WNW,299,0.0,3.0,82,0.00,,,0.00,32767.00,ALWS 1.0-beta,2013-03-07 09:56:00,
2013-03-07 03:01:00,32.3,27.7,29.93,WNW,298,0.0,0.0,83,0.00,,,0.00,32767.00,ALWS 1.0-beta,2013-03-07 10:01:00,
2013-03-07 03:06:00,32.2,27.6,29.93,WNW,299,0.0,0.0,83,0.00,,,0.00,32767.00,ALWS 1.0-beta,2013-03-07 10:06:00,
2013-03-07 03:11:00,32.2,27.6,29.94,WNW,298,0.0,0.0,83,0.00,,,0.00,32767.00,ALWS 1.0-beta,2013-03-07 10:11:00,
2013-03-07 03:16:00,32.1,27.5,29.93,North,360,0.0,0.0,83,0.00,,,0.00,32767.00,ALWS 1.0-beta,2013-03-07 10:16:00,
2013-03-07 03:21:00,32.1,27.5,29.93,WNW,298,0.0,0.0,83,0.00,,,0.00,32767.00,ALWS 1.0-beta,2013-03-07 10:21:00,
2013-03-07 03:26:00,32.1,27.8,29.93,WNW,298,0.0,0.0,84,0.00,,,0.00,32767.00,ALWS 1.0-beta,2013-03-07 10:26:00,
2013-03-07 03:31:00,32.0,27.7,29.93,North,360,0.0,0.0,84,0.00,,,0.00,32767.00,ALWS 1.0-beta,2013-03-07 10:31:00,
2013-03-07 03:36:00,32.1,27.8,29.93,WNW,298,0.0,0.0,84,0.00,,,0.00,32767.00,ALWS 1.0-beta,2013-03-07 10:36:00,
2013-03-07 03:41:00,32.3,28.0,29.93,WNW,298,0.0,0.0,84,0.00,,,0.00,32767.00,ALWS 1.0-beta,2013-03-07 10:41:00,
2013-03-07 03:48:00,32.4,28.1,29.93,North,360,0.0,0.0,84,0.00,,,0.00,32767.00,ALWS 1.0-beta,2013-03-07 10:48:00,
2013-03-07 03:53:00,32.3,28.0,29.93,North,360,0.0,0.0,84,0.00,,,0.00,32767.00,ALWS 1.0-beta,2013-03-07 10:53:00,
2013-03-07 04:00:00,32.2,27.9,29.93,WNW,298,0.0,0.0,84,0.00,,,0.00,32767.00,ALWS 1.0-beta,2013-03-07 11:00:00,
2013-03-07 04:07:00,32.1,27.8,29.93,WNW,298,0.0,0.0,84,0.00,,,0.00,32767.00,ALWS 1.0-beta,2013-03-07 11:07:00,
2013-03-07 04:14:00,32.1,27.8,29.94,North,360,0.0,0.0,84,0.00,,,0.00,32767.00,ALWS 1.0-beta,2013-03-07 11:14:00,
2013-03-07 04:22:00,32.1,28.1,29.94,WNW,300,0.0,0.0,85,0.00,,,0.00,32767.00,ALWS 1.0-beta,2013-03-07 11:22:00,
2013-03-07 04:27:00,32.1,27.8,29.94,North,360,0.0,0.0,84,0.00,,,0.00,32767.00,ALWS 1.0-beta,2013-03-07 11:27:00,
2013-03-07 04:32:00,32.1,28.1,29.95,North,360,0.0,0.0,85,0.00,,,0.00,32767.00,ALWS 1.0-beta,2013-03-07 11:32:00,
2013-03-07 04:39:00,32.1,28.1,29.95,WNW,298,0.0,0.0,85,0.00,,,0.00,32767.00,ALWS 1.0-beta,2013-03-07 11:39:00,
2013-03-07 04:44:00,31.9,27.9,29.95,WNW,298,2.0,2.0,85,0.00,,,0.00,32767.00,ALWS 1.0-beta,2013-03-07 11:44:00,
2013-03-07 04:49:00,31.7,27.7,29.95,WNW,298,0.0,0.0,85,0.00,,,0.00,32767.00,ALWS 1.0-beta,2013-03-07 11:49:00,
2013-03-07 04:54:00,31.6,27.6,29.96,WNW,300,0.0,0.0,85,0.00,,,0.00,32767.00,ALWS 1.0-beta,2013-03-07 11:54:00,
2013-03-07 04:59:00,31.4,27.4,29.96,WNW,300,0.0,0.0,85,0.00,,,0.00,32767.00,ALWS 1.0-beta,2013-03-07 11:59:00,
2013-03-07 05:05:00,31.4,27.4,29.96,WNW,298,0.0,0.0,85,0.00,,,0.00,32767.00,ALWS 1.0-beta,2013-03-07 12:05:00,
2013-03-07 05:10:00,31.4,27.4,29.96,WNW,298,0.0,0.0,85,0.00,,,0.00,32767.00,ALWS 1.0-beta,2013-03-07 12:10:00,
2013-03-07 05:15:00,31.4,27.4,29.96,WNW,298,0.0,0.0,85,0.00,,,0.00,32767.00,ALWS 1.0-beta,2013-03-07 12:15:00,
2013-03-07 05:23:00,31.2,27.2,29.96,WNW,300,0.0,0.0,85,0.00,,,0.00,32767.00,ALWS 1.0-beta,2013-03-07 12:23:00,
2013-03-07 05:28:00,31.2,27.2,29.96,North,360,0.0,0.0,85,0.00,,,0.00,32767.00,ALWS 1.0-beta,2013-03-07 12:28:00,
2013-03-07 05:34:00,31.1,27.1,29.96,WNW,299,0.0,0.0,85,0.00,,,0.00,32767.00,ALWS 1.0-beta,2013-03-07 12:34:00,
2013-03-07 05:39:00,31.1,27.1,29.96,WNW,298,0.0,0.0,85,0.00,,,0.00,32767.00,ALWS 1.0-beta,2013-03-07 12:39:00,
2013-03-07 05:44:00,31.0,27.0,29.96,WNW,298,2.0,2.0,85,0.00,,,0.00,32767.00,ALWS 1.0-beta,2013-03-07 12:44:00,
2013-03-07 05:49:00,30.8,26.8,29.96,WNW,298,0.0,0.0,85,0.00,,,0.00,32767.00,ALWS 1.0-beta,2013-03-07 12:49:00,
2013-03-07 05:54:00,30.7,26.7,29.96,WNW,300,0.0,0.0,85,0.00,,,0.00,32767.00,ALWS 1.0-beta,2013-03-07 12:54:00,
2013-03-07 06:00:00,30.6,26.6,29.97,WNW,299,0.0,0.0,85,0.00,,,0.00,32767.00,ALWS 1.0-beta,2013-03-07 13:00:00,
2013-03-07 06:08:00,30.4,26.4,29.97,North,360,2.0,2.0,85,0.00,,,0.00,32767.00,ALWS 1.0-beta,2013-03-07 13:08:00,
2013-03-07 06:13:00,30.3,26.6,29.97,WNW,298,1.0,1.0,86,0.00,,,0.00,32767.00,ALWS 1.0-beta,2013-03-07 13:13:00,
2013-03-07 06:21:00,30.2,26.5,29.97,North,360,0.0,0.0,86,0.00,,,0.00,32767.00,ALWS 1.0-beta,2013-03-07 13:21:00,
2013-03-07 06:26:00,30.3,26.3,29.98,WNW,298,0.0,0.0,85,0.00,,,0.00,32767.00,ALWS 1.0-beta,2013-03-07 13:26:00,
2013-03-07 06:31:00,30.4,26.7,29.98,WNW,298,0.0,0.0,86,0.00,,,0.00,32767.00,ALWS 1.0-beta,2013-03-07 13:31:00,
2013-03-07 06:36:00,30.4,26.7,29.98,North,360,0.0,0.0,86,0.00,,,0.00,32767.00,ALWS 1.0-beta,2013-03-07 13:36:00,
2013-03-07 06:42:00,30.5,26.8,29.98,WNW,299,0.0,0.0,86,0.00,,,0.00,32767.00,ALWS 1.0-beta,2013-03-07 13:42:00,
2013-03-07 06:50:00,30.5,26.8,29.98,North,360,0.0,0.0,86,0.00,,,0.00,32767.00,ALWS 1.0-beta,2013-03-07 13:50:00,
2013-03-07 06:55:00,30.4,26.7,29.98,North,360,0.0,0.0,86,0.00,,,0.00,32767.00,ALWS 1.0-beta,2013-03-07 13:55:00,
2013-03-07 07:00:00,30.3,26.6,29.98,WNW,298,0.0,0.0,86,0.00,,,0.00,32767.00,ALWS 1.0-beta,2013-03-07 14:00:00,
2013-03-07 07:07:00,30.2,26.5,29.99,WNW,298,0.0,0.0,86,0.00,,,0.00,32767.00,ALWS 1.0-beta,2013-03-07 14:07:00,
2013-03-07 07:12:00,30.3,26.3,29.99,WNW,298,0.0,0.0,85,0.00,,,0.00,32767.00,ALWS 1.0-beta,2013-03-07 14:12:00,
2013-03-07 07:17:00,30.4,26.4,29.99,North,360,0.0,0.0,85,0.00,,,0.00,32767.00,ALWS 1.0-beta,2013-03-07 14:17:00,
2013-03-07 07:25:00,30.5,26.5,29.99,WNW,299,0.0,0.0,85,0.00,,,0.00,32767.00,ALWS 1.0-beta,2013-03-07 14:25:00,
2013-03-07 07:33:00,30.7,26.7,30.00,North,360,0.0,0.0,85,0.00,,,0.00,32767.00,ALWS 1.0-beta,2013-03-07 14:33:00,
2013-03-07 07:38:00,30.7,26.7,30.00,WNW,298,0.0,0.0,85,0.00,,,0.00,32767.00,ALWS 1.0-beta,2013-03-07 14:38:00,
2013-03-07 07:46:00,30.8,26.8,30.00,WNW,299,1.0,1.0,85,0.00,,,0.00,32767.00,ALWS 1.0-beta,2013-03-07 14:46:00,
2013-03-07 07:54:00,30.8,26.8,30.00,North,360,0.0,0.0,85,0.00,,,0.00,32767.00,ALWS 1.0-beta,2013-03-07 14:54:00,
2013-03-07 07:59:00,30.9,26.9,30.00,WNW,299,0.0,0.0,85,0.00,,,0.00,32767.00,ALWS 1.0-beta,2013-03-07 14:59:00,
2013-03-07 08:04:00,31.0,27.0,30.00,WNW,298,0.0,0.0,85,0.00,,,0.00,32767.00,ALWS 1.0-beta,2013-03-07 15:04:00,
2013-03-07 08:09:00,31.0,26.7,30.00,WNW,298,0.0,0.0,84,0.00,,,0.00,32767.00,ALWS 1.0-beta,2013-03-07 15:09:00,
2013-03-07 08:15:00,31.1,26.8,30.00,WNW,299,0.0,0.0,84,0.00,,,0.00,32767.00,ALWS 1.0-beta,2013-03-07 15:15:00,
2013-03-07 08:20:00,31.1,26.8,30.00,WNW,298,0.0,0.0,84,0.00,,,0.00,32767.00,ALWS 1.0-beta,2013-03-07 15:20:00,
2013-03-07 08:25:00,31.2,26.9,30.00,WNW,299,0.0,0.0,84,0.00,,,0.00,32767.00,ALWS 1.0-beta,2013-03-07 15:25:00,
2013-03-07 08:30:00,31.2,26.6,30.01,WNW,299,0.0,0.0,83,0.00,,,0.00,32767.00,ALWS 1.0-beta,2013-03-07 15:30:00,
2013-03-07 08:39:00,31.1,26.5,30.00,WNW,299,0.0,0.0,83,0.00,,,0.00,32767.00,ALWS 1.0-beta,2013-03-07 15:39:00,
2013-03-07 08:44:00,31.2,26.6,30.00,WNW,298,0.0,0.0,83,0.00,,,0.00,32767.00,ALWS 1.0-beta,2013-03-07 15:44:00,
2013-03-07 08:50:00,31.5,26.9,30.00,WNW,299,0.0,0.0,83,0.00,,,0.00,32767.00,ALWS 1.0-beta,2013-03-07 15:50:00,
2013-03-07 08:55:00,31.9,27.3,30.01,WNW,299,0.0,0.0,83,0.00,,,0.00,32767.00,ALWS 1.0-beta,2013-03-07 15:55:00,
2013-03-07 09:00:00,32.3,27.7,30.00,WNW,299,0.0,0.0,83,0.00,,,0.00,32767.00,ALWS 1.0-beta,2013-03-07 16:00:00,
2013-03-07 09:05:00,32.6,28.0,30.00,WNW,299,0.0,2.0,83,0.00,,,0.00,32767.00,ALWS 1.0-beta,2013-03-07 16:05:00,
2013-03-07 09:10:00,33.0,28.1,30.00,WNW,299,0.0,0.0,82,0.00,,,0.00,32767.00,ALWS 1.0-beta,2013-03-07 16:10:00,
2013-03-07 09:17:00,33.7,28.5,30.00,WNW,298,0.0,0.0,81,0.00,,,0.00,32767.00,ALWS 1.0-beta,2013-03-07 16:17:00,
2013-03-07 09:22:00,33.9,28.4,30.00,WNW,299,0.0,0.0,80,0.00,,,0.00,32767.00,ALWS 1.0-beta,2013-03-07 16:22:00,
2013-03-07 09:27:00,33.8,28.0,30.00,WNW,299,0.0,0.0,79,0.00,,,0.00,32767.00,ALWS 1.0-beta,2013-03-07 16:27:00,
2013-03-07 09:34:00,34.0,28.2,30.00,WNW,299,0.0,0.0,79,0.00,,,0.00,32767.00,ALWS 1.0-beta,2013-03-07 16:34:00,
2013-03-07 09:39:00,34.4,28.3,30.00,WNW,298,0.0,0.0,78,0.00,,,0.00,32767.00,ALWS 1.0-beta,2013-03-07 16:39:00,
2013-03-07 09:44:00,34.4,28.0,30.00,WNW,298,0.0,0.0,77,0.00,,,0.00,32767.00,ALWS 1.0-beta,2013-03-07 16:44:00,
2013-03-07 09:49:00,34.6,28.1,30.00,WNW,298,0.0,0.0,77,0.00,,,0.00,32767.00,ALWS 1.0-beta,2013-03-07 16:49:00,
2013-03-07 09:54:00,34.7,27.9,30.00,WNW,299,0.0,1.0,76,0.00,,,0.00,32767.00,ALWS 1.0-beta,2013-03-07 16:54:00,
2013-03-07 09:59:00,35.1,28.3,30.00,WNW,298,0.0,0.0,76,0.00,,,0.00,32767.00,ALWS 1.0-beta,2013-03-07 16:59:00,
2013-03-07 10:04:00,35.4,28.3,30.00,WNW,299,0.0,2.0,75,0.00,,,0.00,32767.00,ALWS 1.0-beta,2013-03-07 17:04:00,
2013-03-07 10:09:00,35.7,28.2,30.00,WNW,298,0.0,2.0,74,0.00,,,0.00,32767.00,ALWS 1.0-beta,2013-03-07 17:09:00,
2013-03-07 10:14:00,35.8,28.3,30.00,WNW,298,0.0,3.0,74,0.00,,,0.00,32767.00,ALWS 1.0-beta,2013-03-07 17:14:00,
2013-03-07 10:19:00,35.9,28.1,30.00,WNW,299,2.0,3.0,73,0.00,,,0.00,32767.00,ALWS 1.0-beta,2013-03-07 17:19:00,
2013-03-07 10:24:00,35.9,28.1,29.99,WNW,299,0.0,3.0,73,0.00,,,0.00,32767.00,ALWS 1.0-beta,2013-03-07 17:24:00,
2013-03-07 10:29:00,36.2,28.4,29.99,WNW,298,0.0,2.0,73,0.00,,,0.00,32767.00,ALWS 1.0-beta,2013-03-07 17:29:00,
2013-03-07 10:35:00,36.6,28.1,29.99,WNW,298,0.0,0.0,71,0.00,,,0.00,32767.00,ALWS 1.0-beta,2013-03-07 17:35:00,
2013-03-07 10:40:00,36.4,27.9,29.99,WNW,298,1.0,1.0,71,0.00,,,0.00,32767.00,ALWS 1.0-beta,2013-03-07 17:40:00,
2013-03-07 10:45:00,36.4,27.9,29.99,WNW,299,0.0,1.0,71,0.00,,,0.00,32767.00,ALWS 1.0-beta,2013-03-07 17:45:00,
2013-03-07 10:53:00,36.4,27.9,29.99,WNW,298,1.0,1.0,71,0.00,,,0.00,32767.00,ALWS 1.0-beta,2013-03-07 17:53:00,
2013-03-07 10:59:00,36.4,27.9,29.99,WNW,298,0.0,0.0,71,0.00,,,0.00,32767.00,ALWS 1.0-beta,2013-03-07 17:59:00,
2013-03-07 11:04:00,36.5,28.0,29.99,WNW,299,0.0,0.0,71,0.00,,,0.00,32767.00,ALWS 1.0-beta,2013-03-07 18:04:00,
2013-03-07 11:09:00,36.6,27.8,29.99,WNW,298,0.0,1.0,70,0.00,,,0.00,32767.00,ALWS 1.0-beta,2013-03-07 18:09:00,
2013-03-07 11:15:00,37.0,28.1,29.99,WNW,298,0.0,0.0,70,0.00,,,0.00,32767.00,ALWS 1.0-beta,2013-03-07 18:15:00,
2013-03-07 11:20:00,37.6,28.0,29.99,WNW,298,0.0,0.0,68,0.00,,,0.00,32767.00,ALWS 1.0-beta,2013-03-07 18:20:00,
2013-03-07 11:28:00,38.5,28.5,29.98,WNW,298,0.0,0.0,67,0.00,,,0.00,32767.00,ALWS 1.0-beta,2013-03-07 18:28:00,
2013-03-07 11:33:00,39.0,28.2,29.98,WNW,298,0.0,0.0,65,0.00,,,0.00,32767.00,ALWS 1.0-beta,2013-03-07 18:33:00,
2013-03-07 11:38:00,39.0,28.2,29.98,WNW,299,3.0,3.0,65,0.00,,,0.00,32767.00,ALWS 1.0-beta,2013-03-07 18:38:00,
2013-03-07 11:43:00,38.8,28.1,29.98,WNW,298,2.0,3.0,65,0.00,,,0.00,32767.00,ALWS 1.0-beta,2013-03-07 18:43:00,
2013-03-07 11:48:00,38.8,28.4,29.98,WNW,298,3.0,4.0,66,0.00,,,0.00,32767.00,ALWS 1.0-beta,2013-03-07 18:48:00,
2013-03-07 11:56:00,39.4,28.2,29.97,WNW,298,0.0,0.0,64,0.00,,,0.00,32767.00,ALWS 1.0-beta,2013-03-07 18:56:00,
2013-03-07 12:05:00,40.5,28.5,29.97,WNW,299,0.0,0.0,62,0.00,,,0.00,32767.00,ALWS 1.0-beta,2013-03-07 19:05:00,
2013-03-07 12:11:00,40.8,28.8,29.97,WNW,298,0.0,0.0,62,0.00,,,0.00,32767.00,ALWS 1.0-beta,2013-03-07 19:11:00,
2013-03-07 12:16:00,41.6,29.2,29.97,WNW,299,0.0,0.0,61,0.00,,,0.00,32767.00,ALWS 1.0-beta,2013-03-07 19:16:00,
2013-03-07 12:21:00,43.2,29.9,29.97,WNW,299,0.0,0.0,59,0.00,,,0.00,32767.00,ALWS 1.0-beta,2013-03-07 19:21:00,
2013-03-07 12:26:00,43.9,29.2,29.97,WNW,299,0.0,0.0,56,0.00,,,0.00,32767.00,ALWS 1.0-beta,2013-03-07 19:26:00,
2013-03-07 12:31:00,44.3,29.6,29.96,WNW,298,1.0,1.0,56,0.00,,,0.00,32767.00,ALWS 1.0-beta,2013-03-07 19:31:00,
2013-03-07 12:36:00,45.0,28.9,29.96,West,275,0.0,1.0,53,0.00,,,0.00,32767.00,ALWS 1.0-beta,2013-03-07 19:36:00,
2013-03-07 12:44:00,45.0,25.5,29.95,West,261,8.0,8.0,46,0.00,,,0.00,32767.00,ALWS 1.0-beta,2013-03-07 19:44:00,
2013-03-07 12:52:00,45.0,25.0,29.95,WSW,254,9.0,9.0,45,0.00,,,0.00,32767.00,ALWS 1.0-beta,2013-03-07 19:52:00,
2013-03-07 12:57:00,45.1,24.5,29.94,SW,232,3.0,3.0,44,0.00,,,0.00,32767.00,ALWS 1.0-beta,2013-03-07 19:57:00,
2013-03-07 13:02:00,45.9,25.2,29.94,SSW,202,6.0,6.0,44,0.00,,,0.00,32767.00,ALWS 1.0-beta,2013-03-07 20:02:00,
2013-03-07 13:07:00,45.6,22.7,29.94,SW,225,9.0,9.0,40,0.00,,,0.00,32767.00,ALWS 1.0-beta,2013-03-07 20:07:00,
2013-03-07 13:12:00,45.0,22.7,29.94,SW,220,9.0,9.0,41,0.00,,,0.00,32767.00,ALWS 1.0-beta,2013-03-07 20:12:00,
2013-03-07 13:18:00,44.7,22.5,29.93,SSW,206,6.0,6.0,41,0.00,,,0.00,32767.00,ALWS 1.0-beta,2013-03-07 20:18:00,
2013-03-07 13:23:00,45.0,23.3,29.93,WSW,239,10.0,10.0,42,0.00,,,0.00,32767.00,ALWS 1.0-beta,2013-03-07 20:23:00,
2013-03-07 13:28:00,45.4,23.7,29.93,SW,220,11.0,11.0,42,0.00,,,0.00,32767.00,ALWS 1.0-beta,2013-03-07 20:28:00,
2013-03-07 13:34:00,45.5,25.4,29.93,SW,222,10.0,10.0,45,0.00,,,0.00,32767.00,ALWS 1.0-beta,2013-03-07 20:34:00,
2013-03-07 13:39:00,45.2,24.0,29.92,SSW,194,11.0,11.0,43,0.00,,,0.00,32767.00,ALWS 1.0-beta,2013-03-07 20:39:00,
2013-03-07 13:46:00,45.3,24.1,29.92,South,180,4.0,4.0,43,0.00,,,0.00,32767.00,ALWS 1.0-beta,2013-03-07 20:46:00,
2013-03-07 13:52:00,45.7,23.9,29.92,SSW,204,8.0,8.0,42,0.00,,,0.00,32767.00,ALWS 1.0-beta,2013-03-07 20:52:00,
2013-03-07 13:58:00,46.0,23.6,29.91,South,187,6.0,6.0,41,0.00,,,0.00,32767.00,ALWS 1.0-beta,2013-03-07 20:58:00,
2013-03-07 14:03:00,45.9,23.5,29.92,SSW,205,6.0,6.0,41,0.00,,,0.00,32767.00,ALWS 1.0-beta,2013-03-07 21:03:00,
2013-03-07 14:08:00,46.1,23.7,29.92,South,188,5.0,5.0,41,0.00,,,0.00,32767.00,ALWS 1.0-beta,2013-03-07 21:08:00,
2013-03-07 14:14:00,46.2,23.8,29.92,South,191,4.0,4.0,41,0.00,,,0.00,32767.00,ALWS 1.0-beta,2013-03-07 21:14:00,
2013-03-07 14:19:00,46.6,23.0,29.92,South,189,2.0,2.0,39,0.00,,,0.00,32767.00,ALWS 1.0-beta,2013-03-07 21:19:00,
2013-03-07 14:27:00,47.1,24.0,29.91,South,187,3.0,3.0,40,0.00,,,0.00,32767.00,ALWS 1.0-beta,2013-03-07 21:27:00,
2013-03-07 14:34:00,47.1,23.4,29.92,SSE,165,3.0,3.0,39,0.00,,,0.00,32767.00,ALWS 1.0-beta,2013-03-07 21:34:00,
2013-03-07 14:41:00,47.3,23.0,29.91,SSE,165,2.0,2.0,38,0.00,,,0.00,32767.00,ALWS 1.0-beta,2013-03-07 21:41:00,
2013-03-07 14:46:00,47.2,22.3,29.91,SSE,164,1.0,1.0,37,0.00,,,0.00,32767.00,ALWS 1.0-beta,2013-03-07 21:46:00,
2013-03-07 14:51:00,47.1,23.4,29.91,SSE,165,4.0,4.0,39,0.00,,,0.00,32767.00,ALWS 1.0-beta,2013-03-07 21:51:00,
2013-03-07 14:58:00,47.0,22.7,29.91,South,170,0.0,0.0,38,0.00,,,0.00,32767.00,ALWS 1.0-beta,2013-03-07 21:58:00,
2013-03-07 15:04:00,47.1,22.2,29.92,South,170,1.0,1.0,37,0.00,,,0.00,32767.00,ALWS 1.0-beta,2013-03-07 22:04:00,
2013-03-07 15:11:00,47.8,22.2,29.92,South,170,2.0,2.0,36,0.00,,,0.00,32767.00,ALWS 1.0-beta,2013-03-07 22:11:00,
2013-03-07 15:19:00,48.1,21.8,29.92,South,170,0.0,0.0,35,0.00,,,0.00,32767.00,ALWS 1.0-beta,2013-03-07 22:19:00,
2013-03-07 15:24:00,48.1,21.8,29.92,South,170,3.0,3.0,35,0.00,,,0.00,32767.00,ALWS 1.0-beta,2013-03-07 22:24:00,
2013-03-07 15:29:00,47.8,21.5,29.92,South,169,0.0,0.0,35,0.00,,,0.00,32767.00,ALWS 1.0-beta,2013-03-07 22:29:00,
2013-03-07 15:34:00,47.5,21.9,29.92,South,170,0.0,0.0,36,0.00,,,0.00,32767.00,ALWS 1.0-beta,2013-03-07 22:34:00,
2013-03-07 15:39:00,47.5,21.9,29.92,South,170,0.0,0.0,36,0.00,,,0.00,32767.00,ALWS 1.0-beta,2013-03-07 22:39:00,
2013-03-07 15:46:00,47.4,22.5,29.92,South,170,0.0,0.0,37,0.00,,,0.00,32767.00,ALWS 1.0-beta,2013-03-07 22:46:00,
2013-03-07 15:51:00,47.5,21.9,29.91,South,170,0.0,0.0,36,0.00,,,0.00,32767.00,ALWS 1.0-beta,2013-03-07 22:51:00,
2013-03-07 15:56:00,47.3,22.4,29.91,South,169,0.0,0.0,37,0.00,,,0.00,32767.00,ALWS 1.0-beta,2013-03-07 22:56:00,
2013-03-07 16:01:00,46.8,22.5,29.91,South,170,0.0,0.0,38,0.00,,,0.00,32767.00,ALWS 1.0-beta,2013-03-07 23:01:00,
2013-03-07 16:06:00,46.7,22.5,29.91,South,170,0.0,0.0,38,0.00,,,0.00,32767.00,ALWS 1.0-beta,2013-03-07 23:06:00,
2013-03-07 16:14:00,46.5,22.9,29.91,WNW,288,8.0,8.0,39,0.00,,,0.00,32767.00,ALWS 1.0-beta,2013-03-07 23:14:00,
2013-03-07 16:19:00,44.8,26.3,29.91,WNW,302,6.0,9.0,48,0.00,,,0.00,32767.00,ALWS 1.0-beta,2013-03-07 23:19:00,
2013-03-07 16:26:00,43.0,27.0,29.91,WNW,292,6.0,6.0,53,0.00,,,0.00,32767.00,ALWS 1.0-beta,2013-03-07 23:26:00,
2013-03-07 16:34:00,42.1,28.0,29.91,WNW,296,7.0,7.0,57,0.00,,,0.00,32767.00,ALWS 1.0-beta,2013-03-07 23:34:00,
2013-03-07 16:39:00,41.8,27.7,29.91,NW,308,6.0,6.0,57,0.00,,,0.00,32767.00,ALWS 1.0-beta,2013-03-07 23:39:00,
2013-03-07 16:44:00,41.6,27.1,29.91,WNW,298,7.0,7.0,56,0.00,,,0.00,32767.00,ALWS 1.0-beta,2013-03-07 23:44:00,
2013-03-07 16:49:00,41.7,27.6,29.91,WNW,301,7.0,9.0,57,0.00,,,0.00,32767.00,ALWS 1.0-beta,2013-03-07 23:49:00,
2013-03-07 16:55:00,41.4,27.8,29.91,NW,310,9.0,9.0,58,0.00,,,0.00,32767.00,ALWS 1.0-beta,2013-03-07 23:55:00,
2013-03-07 17:03:00,40.7,27.9,29.91,WNW,303,7.0,7.0,60,0.00,,,0.00,32767.00,ALWS 1.0-beta,2013-03-08 00:03:00,
2013-03-07 17:08:00,40.4,27.6,29.91,WNW,300,8.0,8.0,60,0.00,,,0.00,32767.00,ALWS 1.0-beta,2013-03-08 00:08:00,
2013-03-07 17:15:00,40.1,27.8,29.91,WNW,302,6.0,6.0,61,0.00,,,0.00,32767.00,ALWS 1.0-beta,2013-03-08 00:15:00,
2013-03-07 17:20:00,40.0,27.6,29.91,WNW,298,6.0,6.0,61,0.00,,,0.00,32767.00,ALWS 1.0-beta,2013-03-08 00:20:00,
2013-03-07 17:27:00,39.6,27.7,29.91,WNW,295,12.0,12.0,62,0.00,,,0.00,32767.00,ALWS 1.0-beta,2013-03-08 00:27:00,
2013-03-07 17:34:00,39.3,27.8,29.91,WNW,293,9.0,9.0,63,0.00,,,0.00,32767.00,ALWS 1.0-beta,2013-03-08 00:34:00,
2013-03-07 17:39:00,39.0,27.5,29.92,WNW,296,7.0,11.0,63,0.00,,,0.00,32767.00,ALWS 1.0-beta,2013-03-08 00:39:00,
2013-03-07 17:44:00,39.0,27.5,29.92,WNW,300,5.0,11.0,63,0.00,,,0.00,32767.00,ALWS 1.0-beta,2013-03-08 00:44:00,
2013-03-07 17:50:00,38.8,27.7,29.92,WNW,296,5.0,5.0,64,0.00,,,0.00,32767.00,ALWS 1.0-beta,2013-03-08 00:50:00,
2013-03-07 17:58:00,38.5,27.4,29.93,NW,317,4.0,4.0,64,0.00,,,0.00,32767.00,ALWS 1.0-beta,2013-03-08 00:58:00,
2013-03-07 18:04:00,38.4,27.7,29.93,NW,317,0.0,0.0,65,0.00,,,0.00,32767.00,ALWS 1.0-beta,2013-03-08 01:04:00,
2013-03-07 18:09:00,38.2,27.5,29.93,NW,317,0.0,0.0,65,0.00,,,0.00,32767.00,ALWS 1.0-beta,2013-03-08 01:09:00,
2013-03-07 18:14:00,38.1,27.4,29.94,NW,317,0.0,0.0,65,0.00,,,0.00,32767.00,ALWS 1.0-beta,2013-03-08 01:14:00,
2013-03-07 18:19:00,37.9,27.6,29.93,NW,317,0.0,1.0,66,0.00,,,0.00,32767.00,ALWS 1.0-beta,2013-03-08 01:19:00,
2013-03-07 18:25:00,37.7,27.8,29.94,ESE,117,5.0,5.0,67,0.00,,,0.00,32767.00,ALWS 1.0-beta,2013-03-08 01:25:00,
2013-03-07 18:30:00,37.8,27.8,29.94,SE,136,0.0,0.0,67,0.00,,,0.00,32767.00,ALWS 1.0-beta,2013-03-08 01:30:00,
2013-03-07 18:35:00,37.7,27.8,29.95,SE,142,3.0,3.0,67,0.00,,,0.00,32767.00,ALWS 1.0-beta,2013-03-08 01:35:00,
2013-03-07 18:40:00,37.5,27.5,29.94,SE,142,0.0,0.0,67,0.00,,,0.00,32767.00,ALWS 1.0-beta,2013-03-08 01:40:00,
2013-03-07 18:45:00,37.5,27.5,29.93,NE,49,5.0,6.0,67,0.00,,,0.00,32767.00,ALWS 1.0-beta,2013-03-08 01:45:00,
2013-03-07 18:51:00,37.8,27.8,29.94,SE,131,0.0,0.0,67,0.00,,,0.00,32767.00,ALWS 1.0-beta,2013-03-08 01:51:00,
2013-03-07 18:59:00,37.4,27.8,29.95,SSW,205,0.0,0.0,68,0.00,,,0.00,32767.00,ALWS 1.0-beta,2013-03-08 01:59:00,
2013-03-07 19:06:00,37.2,27.6,29.94,SSW,205,0.0,0.0,68,0.00,,,0.00,32767.00,ALWS 1.0-beta,2013-03-08 02:06:00,
2013-03-07 19:11:00,37.2,28.0,29.95,West,277,6.0,7.0,69,0.00,,,0.00,32767.00,ALWS 1.0-beta,2013-03-08 02:11:00,
2013-03-07 19:18:00,36.9,27.3,29.96,WNW,286,1.0,1.0,68,0.00,,,0.00,32767.00,ALWS 1.0-beta,2013-03-08 02:18:00,
2013-03-07 19:24:00,37.5,27.2,29.96,NW,309,6.0,6.0,66,0.00,,,0.00,32767.00,ALWS 1.0-beta,2013-03-08 02:24:00,
2013-03-07 19:29:00,37.3,27.4,29.97,NW,309,0.0,0.0,67,0.00,,,0.00,32767.00,ALWS 1.0-beta,2013-03-08 02:29:00,
2013-03-07 19:37:00,37.0,27.1,29.97,WNW,295,5.0,5.0,67,0.00,,,0.00,32767.00,ALWS 1.0-beta,2013-03-08 02:37:00,
2013-03-07 19:45:00,36.3,27.1,29.97,WNW,302,5.0,5.0,69,0.00,,,0.00,32767.00,ALWS 1.0-beta,2013-03-08 02:45:00,
2013-03-07 19:51:00,36.0,27.2,29.97,North,11,6.0,6.0,70,0.00,,,0.00,32767.00,ALWS 1.0-beta,2013-03-08 02:51:00,
2013-03-07 19:56:00,36.7,27.5,29.97,East,93,2.0,7.0,69,0.00,,,0.00,32767.00,ALWS 1.0-beta,2013-03-08 02:56:00,
2013-03-07 20:01:00,37.3,27.7,29.97,East,93,0.0,0.0,68,0.00,,,0.00,32767.00,ALWS 1.0-beta,2013-03-08 03:01:00,
2013-03-07 20:06:00,37.2,27.6,29.97,East,93,0.0,0.0,68,0.00,,,0.00,32767.00,ALWS 1.0-beta,2013-03-08 03:06:00,
2013-03-07 20:11:00,37.0,27.4,29.97,East,93,2.0,4.0,68,0.00,,,0.00,32767.00,ALWS 1.0-beta,2013-03-08 03:11:00,
2013-03-07 20:16:00,36.9,27.3,29.96,East,93,2.0,3.0,68,0.00,,,0.00,32767.00,ALWS 1.0-beta,2013-03-08 03:16:00,
2013-03-07 20:21:00,36.7,27.5,29.97,East,80,2.0,4.0,69,0.00,,,0.00,32767.00,ALWS 1.0-beta,2013-03-08 03:21:00,
2013-03-07 20:26:00,36.9,27.7,29.97,East,84,0.0,0.0,69,0.00,,,0.00,32767.00,ALWS 1.0-beta,2013-03-08 03:26:00,
2013-03-07 20:31:00,37.0,27.8,29.98,East,84,0.0,0.0,69,0.00,,,0.00,32767.00,ALWS 1.0-beta,2013-03-08 03:31:00,
2013-03-07 20:37:00,36.5,27.7,29.98,NW,318,3.0,3.0,70,0.00,,,0.00,32767.00,ALWS 1.0-beta,2013-03-08 03:37:00,
2013-03-07 20:42:00,36.4,27.6,29.98,NNW,341,0.0,0.0,70,0.00,,,0.00,32767.00,ALWS 1.0-beta,2013-03-08 03:42:00,
2013-03-07 20:48:00,36.5,27.3,29.97,NW,315,4.0,4.0,69,0.00,,,0.00,32767.00,ALWS 1.0-beta,2013-03-08 03:48:00,
2013-03-07 20:53:00,36.6,27.0,29.98,NW,315,9.0,9.0,68,0.00,,,0.00,32767.00,ALWS 1.0-beta,2013-03-08 03:53:00,
2013-03-07 21:01:00,35.9,27.1,29.97,NNW,331,6.0,6.0,70,0.00,,,0.00,32767.00,ALWS 1.0-beta,2013-03-08 04:01:00,
2013-03-07 21:06:00,35.6,27.1,29.97,NNW,338,1.0,1.0,71,0.00,,,0.00,32767.00,ALWS 1.0-beta,2013-03-08 04:06:00,
2013-03-07 21:11:00,35.6,27.1,29.97,NNW,338,4.0,4.0,71,0.00,,,0.00,32767.00,ALWS 1.0-beta,2013-03-08 04:11:00,
2013-03-07 21:18:00,35.8,27.3,29.97,NNW,338,0.0,0.0,71,0.00,,,0.00,32767.00,ALWS 1.0-beta,2013-03-08 04:18:00,
2013-03-07 21:23:00,35.8,27.3,29.98,NW,311,4.0,4.0,71,0.00,,,0.00,32767.00,ALWS 1.0-beta,2013-03-08 04:23:00,
2013-03-07 21:29:00,36.0,27.5,29.99,West,273,0.0,0.0,71,0.00,,,0.00,32767.00,ALWS 1.0-beta,2013-03-08 04:29:00,
2013-03-07 21:34:00,36.1,27.6,29.99,West,273,0.0,0.0,71,0.00,,,0.00,32767.00,ALWS 1.0-beta,2013-03-08 04:34:00,
2013-03-07 21:39:00,36.3,27.8,29.99,West,273,0.0,0.0,71,0.00,,,0.00,32767.00,ALWS 1.0-beta,2013-03-08 04:39:00,
2013-03-07 21:46:00,36.4,27.9,29.99,West,272,0.0,0.0,71,0.00,,,0.00,32767.00,ALWS 1.0-beta,2013-03-08 04:46:00,
2013-03-07 21:51:00,36.4,27.9,29.99,West,273,0.0,0.0,71,0.00,,,0.00,32767.00,ALWS 1.0-beta,2013-03-08 04:51:00,
2013-03-07 21:56:00,36.5,28.4,29.99,SSE,150,2.0,4.0,72,0.00,,,0.00,32767.00,ALWS 1.0-beta,2013-03-08 04:56:00,
2013-03-07 22:00:00,36.7,28.5,29.98,ESE,113,3.0,5.0,72,0.00,,,0.00,32767.00,ALWS 1.0-beta,2013-03-08 05:00:00,
2013-03-07 22:02:00,36.8,28.6,29.98,ESE,113,3.0,4.0,72,0.00,,,0.00,32767.00,ALWS 1.0-beta,2013-03-08 05:02:00,
2013-03-07 22:07:00,37.0,29.2,29.98,East,101,0.0,0.0,73,0.00,,,0.00,32767.00,ALWS 1.0-beta,2013-03-08 05:07:00,
2013-03-07 22:12:00,37.0,28.8,29.98,ENE,73,1.0,1.0,72,0.00,,,0.00,32767.00,ALWS 1.0-beta,2013-03-08 05:12:00,
2013-03-07 22:17:00,37.0,28.8,29.98,East,79,5.0,5.0,72,0.00,,,0.00,32767.00,ALWS 1.0-beta,2013-03-08 05:17:00,
2013-03-07 22:22:00,36.8,28.6,29.98,East,92,3.0,3.0,72,0.00,,,0.00,32767.00,ALWS 1.0-beta,2013-03-08 05:22:00,
2013-03-07 22:27:00,36.6,28.8,29.98,ENE,75,6.0,6.0,73,0.00,,,0.00,32767.00,ALWS 1.0-beta,2013-03-08 05:27:00,
2013-03-07 22:32:00,36.6,28.8,29.98,East,95,10.0,13.0,73,0.00,,,0.00,32767.00,ALWS 1.0-beta,2013-03-08 05:32:00,
2013-03-07 22:36:00,36.6,29.1,29.98,East,82,3.0,11.0,74,0.00,,,0.00,32767.00,ALWS 1.0-beta,2013-03-08 05:36:00,
2013-03-07 22:41:00,36.5,29.0,29.97,NE,53,5.0,10.0,74,0.00,,,0.00,32767.00,ALWS 1.0-beta,2013-03-08 05:41:00,
2013-03-07 22:46:00,36.3,28.8,29.97,ENE,74,9.0,10.0,74,0.00,,,0.00,32767.00,ALWS 1.0-beta,2013-03-08 05:46:00,
2013-03-07 22:51:00,36.1,29.0,29.97,NE,48,6.0,11.0,75,0.00,,,0.00,32767.00,ALWS 1.0-beta,2013-03-08 05:51:00,
2013-03-07 22:56:00,35.9,28.8,29.97,NE,49,4.0,8.0,75,0.00,,,0.00,32767.00,ALWS 1.0-beta,2013-03-08 05:56:00,
2013-03-07 23:01:00,35.6,28.8,29.97,ENE,70,6.0,7.0,76,0.00,,,0.00,32767.00,ALWS 1.0-beta,2013-03-08 06:01:00,
2013-03-07 23:06:00,35.2,28.4,29.97,NE,37,4.0,7.0,76,0.00,,,0.00,32767.00,ALWS 1.0-beta,2013-03-08 06:06:00,
2013-03-07 23:11:00,35.0,28.5,29.97,ENE,67,5.0,7.0,77,0.00,,,0.00,32767.00,ALWS 1.0-beta,2013-03-08 06:11:00,
2013-03-07 23:16:00,35.4,28.9,29.96,ENE,77,8.0,12.0,77,0.00,,,0.00,32767.00,ALWS 1.0-beta,2013-03-08 06:16:00,
2013-03-07 23:21:00,35.6,29.1,29.97,NE,51,5.0,12.0,77,0.00,,,0.00,32767.00,ALWS 1.0-beta,2013-03-08 06:21:00,
2013-03-07 23:26:00,35.4,28.9,29.96,NW,317,0.0,10.0,77,0.00,,,0.00,32767.00,ALWS 1.0-beta,2013-03-08 06:26:00,
2013-03-07 23:31:00,34.7,28.2,29.97,West,270,9.0,13.0,77,0.00,,,0.00,32767.00,ALWS 1.0-beta,2013-03-08 06:31:00,
2013-03-07 23:36:00,34.0,27.9,29.97,WNW,300,7.0,12.0,78,0.00,,,0.00,32767.00,ALWS 1.0-beta,2013-03-08 06:36:00,
2013-03-07 23:41:00,33.4,27.9,29.97,North,360,6.0,10.0,80,0.00,,,0.00,32767.00,ALWS 1.0-beta,2013-03-08 06:41:00,
2013-03-07 23:46:00,33.1,27.9,29.97,NW,322,6.0,10.0,81,0.00,,,0.00,32767.00,ALWS 1.0-beta,2013-03-08 06:46:00,
2013-03-07 23:51:00,32.8,27.9,29.97,NNW,333,6.0,11.0,82,0.00,,,0.00,32767.00,ALWS 1.0-beta,2013-03-08 06:51:00,
2013-03-07 23:56:00,32.6,27.7,29.96,NW,321,4.0,11.0,82,0.00,,,0.00,32767.00,ALWS 1.0-beta,2013-03-08 06:56:00,